Tümü
Glen Innes Airport (Glen Innes, New South Wales) GLI Hava Durumu
|
Glen Innes, New South Wales (YGLI)
Açık
Hafif rüzgârlı |
|
2 °C |
GLI Terminal Alan Tahmini
| Date | Time (AEST) | Flight Rules | Wind Dir. | Speed | Type | Height AGL (ft) | Visibility | Remarks | ||||||
|---|---|---|---|---|---|---|---|---|---|---|---|---|---|---|
Yakın zamandaki GLI METAR geçmişi
| Date | Time (AEST) | Flight Rules | Wind Dir. | Speed | Type | Height AGL (ft) | Visibility | Temp (°C) | Temp (°F) | Dew Point (°C) | Dew Point (°F) | Rel. Humid. | Pressure | Density Altitude | Remarks |
|---|---|---|---|---|---|---|---|---|---|---|---|---|---|---|---|
| 08-May | 22:00 | VFR | 120° | 4 kt | 10000 meters | 2° | 35° | -1° | 30° | 80% | 1023 mb | 2.297 ft | |||
| 08-May | 21:00 | VFR | Calm | 10000 meters | 2° | 35° | -1° | 30° | 80% | 1022 mb | 2.326 ft | ||||
| 08-May | 20:00 | VFR | 260° | 2 kt | 10000 meters | 5° | 41° | -1° | 30° | 65% | 1022 mb | 2.686 ft | |||
| 08-May | 19:00 | VFR | 250° | 5 kt | 10000 meters | 6° | 42° | -2° | 28° | 56% | 1022 mb | 2.806 ft | |||
| 08-May | 18:00 | VFR | 240° | 3 kt | 10000 meters | 10° | 50° | -2° | 28° | 43% | 1021 mb | 3.316 ft | |||
| 08-May | 17:00 | VFR | 250° | 10 kt | 10000 meters | 13° | 55° | -1° | 30° | 38% | 1020 mb | 3.705 ft | |||
| 08-May | 16:00 | VFR | 250° | 13 kt | 10000 meters | 15° | 59° | -2° | 28° | 31% | 1020 mb | 3.945 ft | |||
| 08-May | 15:00 | VFR | 250° | 14 kt | 10000 meters | 16° | 60° | 0° | 32° | 34% | 1019 mb | 4.095 ft | |||
| 08-May | 14:00 | VFR | 260° | 13 kt | 10000 meters | 16° | 60° | 0° | 32° | 34% | 1019 mb | 4.095 ft | |||
| 08-May | 13:00 | VFR | 260° | 12 kt | 10000 meters | 16° | 60° | 1° | 33° | 36% | 1020 mb | 4.065 ft | |||
| 08-May | 12:00 | VFR | 260° | 13 kt | 10000 meters | 15° | 59° | 0° | 32° | 36% | 1020 mb | 3.945 ft | |||
| 08-May | 11:00 | VFR | 270° | 11 kt | 10000 meters | 13° | 55° | -1° | 30° | 38% | 1021 mb | 3.676 ft | |||
| 08-May | 10:00 | VFR | 240° | 9 kt | 10000 meters | 13° | 55° | 0° | 32° | 41% | 1021 mb | 3.676 ft | |||
| 08-May | 09:00 | VFR | 250° | 2 kt | 10000 meters | 8° | 46° | -2° | 28° | 49% | 1021 mb | 3.076 ft | |||
| 08-May | 08:00 | VFR | 270° | 3 kt | 10000 meters | 3° | 37° | -2° | 28° | 70% | 1021 mb | 2.476 ft | |||
| 08-May | 07:00 | VFR | 310° | 3 kt | 10000 meters | -1° | 30° | -3° | 26° | 86% | 1021 mb | 1.996 ft | |||
| 08-May | 06:00 | VFR | Calm | 10000 meters | -2° | 28° | -5° | 23° | 80% | 1020 mb | 1.905 ft | ||||
| 08-May | 05:00 | VFR | 250° | 3 kt | 10000 meters | -1° | 30° | -5° | 23° | 74% | 1020 mb | 2.025 ft | |||
| 08-May | 04:00 | VFR | 230° | 4 kt | 10000 meters | -3° | 26° | -7° | 19° | 74% | 1020 mb | 1.785 ft | |||
| 08-May | 03:00 | VFR | 290° | 2 kt | 10000 meters | -1° | 30° | -5° | 23° | 74% | 1020 mb | 2.025 ft | |||
| 08-May | 02:00 | VFR | 270° | 4 kt | 10000 meters | -1° | 30° | -6° | 21° | 69% | 1020 mb | 2.025 ft | |||
| 08-May | 01:00 | VFR | 220° | 6 kt | 10000 meters | 1° | 33° | -5° | 23° | 64% | 1020 mb | 2.265 ft | |||
| 08-May | 00:00 | VFR | 220° | 3 kt | 10000 meters | 2° | 35° | -6° | 21° | 55% | 1020 mb | 2.385 ft | |||
| 07-May | 23:00 | VFR | 200° | 6 kt | 10000 meters | 2° | 35° | -6° | 21° | 55% | 1020 mb | 2.385 ft |
Giriş
| Tarayıcınız desteklenmiyor. tarayıcınızı yükseltin |
